Weather observations for the past three days for
Gainesville, Gilmer Memorial Airport
Imperial (Metric)
Date Time (edt) Wind (mph) Vis. (mi.) Weather Sky Cond. Temperature (ºF) Relative Humidity Wind Chill (°F) Heat Index (°F) Pressure Precipitation (in)
Air Dwpt 6 hour altimeter (in) sea level (mb) 1 hr 3 hr 6 hr
Max. Min.
22 10:53 E 7 10.00 Fair CLR 82.9 68 61% 86 30.19 1020.6
22 09:53 E 6 10.00 Fair CLR 80.1 66 62% 82 30.2 1020.8
22 08:53 NE 5 10.00 Fair CLR 79 64.9 62% 81 30.2 1021.0
22 07:53 NE 5 10.00 Fair CLR 75.9 64 75.9 71.1 67% 78 30.2 1020.7
22 06:53 NE 5 10.00 Fair CLR 72 64 76% 30.19 1020.6
22 05:53 NE 5 10.00 Fair CLR 71.1 64 79% 30.19 1020.5
22 04:53 N 3 10.00 Fair CLR 72 64 76% 30.19 1020.4
22 03:53 Calm 10.00 Fair CLR 72 64 76% 30.19 1020.4
22 02:53 NE 3 10.00 Partly Cloudy SCT060 73.9 63 69% 30.19 1020.6
22 01:53 Calm 10.00 Fair CLR 73.9 63 86 73 69% 30.2 1020.8
22 00:53 NE 3 10.00 Fair CLR 75 64 69% 77 30.21 1021.2
21 23:53 E 3 7.00 Fair CLR 78.1 63 60% 80 30.21 1021.2
21 22:53 E 3 10.00 Fair CLR 79 64 60% 81 30.2 1020.9
21 21:53 E 3 10.00 Fair CLR 81 64 57% 83 30.19 1020.5
21 20:53 E 3 10.00 Fair CLR 82.9 64 53% 84 30.18 1020.2
21 19:53 E 8 10.00 Fair CLR 86 63 90 86 46% 87 30.18 1020.2
21 18:53 E 6 10.00 Fair CLR 87.1 63 45% 88 30.18 1020.4
21 17:53 E 9 10.00 Fair CLR 87.1 63 45% 88 30.19 1020.6
21 16:53 Vrbl 6 10.00 Fair CLR 89.1 63 42% 90 30.21 1021.1
21 15:53 Calm 10.00 Fair CLR 89.1 62.1 41% 89 30.22 1021.5
21 14:53 E 9 10.00 A Few Clouds FEW050 87.1 63 45% 88 30.24 1022.1
21 13:53 Calm 10.00 Partly Cloudy SCT050 87.1 62.1 87.1 73 43% 88 30.26 1022.9
21 12:53 E 7 G 16 10.00 A Few Clouds FEW046 86 63 46% 87 30.29 1023.8
21 11:53 NE 9 10.00 Fair CLR 84.9 62.1 46% 85 30.3 1024.1
21 10:53 N 6 10.00 Fair CLR 82.9 61 48% 83 30.31 1024.6
21 09:53 NW 3 10.00 Fair CLR 79 64 60% 81 30.31 1024.8
21 08:53 Calm 10.00 Fair CLR 75.9 63 64% 78 30.31 1024.8
21 07:53 E 5 10.00 Fair CLR 73 63 73 69.1 71% 30.31 1024.7
21 06:53 E 5 10.00 Fair CLR 70 62.1 76% 30.3 1024.5
21 05:53 E 6 10.00 A Few Clouds FEW050 70 62.1 76% 30.29 1024.1
21 04:53 NE 6 10.00 Fair CLR 72 63 73% 30.28 1023.5
21 03:53 NE 6 10.00 Fair CLR 72 63 73% 30.28 1023.6
21 02:53 NE 6 10.00 Fair CLR 72 63 73% 30.29 1023.9
21 01:53 NE 5 10.00 Fair CLR 73 64 82.9 73 74% 30.29 1024.1
21 00:53 NE 3 10.00 Fair CLR 73.9 64 71% 30.3 1024.3
20 23:53 Calm 10.00 Fair CLR 75 63 66% 77 30.3 1024.4
20 22:53 E 3 10.00 Fair CLR 75.9 63 64% 78 30.3 1024.5
20 21:53 NE 3 10.00 Fair CLR 77 63 62% 79 30.29 1024.1
20 20:53 NE 5 10.00 Fair CLR 81 62.1 53% 82 30.28 1023.8
20 19:53 E 7 10.00 Fair CLR 84 61 88 82.9 46% 84 30.28 1023.8
20 18:53 E 7 10.00 Fair CLR 86 62.1 45% 87 30.29 1023.9
20 17:53 E 9 10.00 Fair CLR 87.1 62.1 43% 88 30.29 1024.0
20 16:53 E 9 10.00 Partly Cloudy SCT050 84.9 62.1 46% 85 30.3 1024.4
20 15:53 E 10 10.00 A Few Clouds FEW060 87.1 62.1 43% 88 30.31 1024.7
20 14:53 NE 10 10.00 Partly Cloudy FEW050 SCT060 84.9 63 48% 86 30.33 1025.5
20 13:53 E 12 G 21 10.00 Mostly Cloudy SCT046 BKN060 84 62.1 86 73 48% 85 30.36 1026.3
20 12:53 NE 12 10.00 Partly Cloudy SCT042 84 64 51% 85 30.37 1026.7
20 11:53 E 9 10.00 A Few Clouds FEW038 82 63 53% 83 30.38 1027.2
20 10:53 E 10 10.00 Fair CLR 81 63 54% 82 30.39 1027.4
20 09:53 E 9 10.00 Fair CLR 77 63 62% 79 30.38 1027.1
20 08:53 NE 8 10.00 Fair CLR 75.9 63 64% 78 30.38 1027.1
20 07:53 NE 6 10.00 Fair CLR 73 63 73.9 70 71% 30.36 1026.6
20 06:53 E 6 10.00 Fair CLR 70 62.1 76% 30.35 1026.1
20 05:53 E 7 10.00 Overcast OVC060 72 62.1 71% 30.33 1025.6
20 04:53 E 8 10.00 Overcast OVC060 73 61 66% 30.32 1025.1
20 03:53 E 7 10.00 Overcast OVC055 73 61 66% 30.31 1024.8
20 02:53 E 8 10.00 Overcast OVC055 73 61 66% 30.3 1024.3
20 01:53 E 6 10.00 Mostly Cloudy BKN055 73 61 80.1 73 66% 30.3 1024.5
20 00:53 NE 9 10.00 Fair CLR 75 61 62% 77 30.3 1024.2
19 23:53 E 8 10.00 Fair CLR 75.9 61 60% 78 30.31 1024.7
19 22:53 E 10 10.00 Fair CLR 75.9 61 60% 78 30.31 1024.7
19 21:53 NE 8 10.00 Fair CLR 77 61 58% 79 30.3 1024.3
19 20:53 NE 8 10.00 Fair CLR 78.1 62.1 58% 80 30.29 1024.2
19 19:53 E 12 10.00 Fair CLR 80.1 63 84.9 80.1 56% 81 30.28 1023.9
19 18:53 E 7 10.00 Fair CLR 81 62.1 53% 82 30.28 1024.0
19 17:53 E 10 10.00 Fair CLR 84 62.1 48% 85 30.29 1024.0
19 16:53 E 13 G 20 10.00 A Few Clouds FEW050 82 61 49% 83 30.29 1024.2
19 15:53 E 10 G 22 10.00 Partly Cloudy SCT046 82 60.1 47% 82 30.3 1024.6
19 14:53 E 15 G 25 10.00 A Few Clouds FEW042 82 61 49% 83 30.31 1024.7
19 13:53 E 13 10.00 Fair CLR 81 61 82 69.1 51% 82 30.32 1025.2
19 12:53 E 12 10.00 A Few Clouds FEW033 80.1 63 56% 81 30.33 1025.4
19 11:53 E 13 10.00 Partly Cloudy SCT028 77 63 62% 79 30.34 1025.7
Date Time (edt) Wind (mph) Vis. (mi.) Weather Sky Cond. Air Dwpt Max. Min. Relative Humidity Wind Chill (°F) Heat Index (°F) altimeter (in) sea level (mb) 1 hr 3 hr 6 hr
6 hour
Temperature (ºF) Pressure Precipitation (in)